Regional Weather Roundup
Issued by NWS

Home | Current Version | Previous Version | Text Only | Print | Product List | Glossary Off
Versions: 1 2 3 4 5 6 7 8 9 10 11 12 13 14 15 16 17 18 19 20 21 22 23 24 25 26 27 28 29 30 31 32 33 34 35 36 37 38 39 40 41 42 43 44 45 46 47 48 49 50

000
ASUS43 KIND 211009
RWRIN

WEATHER ROUNDUP FOR INDIANA
NATIONAL WEATHER SERVICE INDIANAPOLIS IN
500 AM EST TUE NOV 21 2017

NOTE: "FAIR" INDICATES FEW OR NO CLOUDS BELOW 12,000 FEET WITH NO
SIGNIFICANT WEATHER AND/OR OBSTRUCTIONS TO VISIBILITY.

* - STATION DOES NOT REPORT WEATHER SUCH AS PRECIPITATION OR FOG.

+ - STATION NOT QUALITY CONTROLLED BY THE NATIONAL WEATHER SERVICE.
    USE DATA WITH CAUTION...ESPECIALLY DEWPOINT AND RELATIVE
    HUMIDITY OBSERVATIONS.

INZ001>003-010>013-019-020-211100-
NORTHWEST INDIANA

CITY           SKY/WX    TMP DP  RH WIND       PRES   REMARKS
KNOX *+        MOCLDY    41  30  65 SW16      29.73F
LA PORTE +     PTCLDY    41  30  66 SW18G24   29.72F
MICHIGAN CITY+ CLOUDY    43  30  61 SW16G29   29.71S
MONTICELLO +   PTCLDY    40  27  59 S16G23    29.77S WCI  32
RENSSELAER +   PTCLDY    41  27  56 S20       29.76S
VALPARAISO     CLOUDY    43  31  62 SW15      29.73S

$$

LMZ046-743>745-211100-
SOUTHERN LAKE MICHIGAN

STATION/POSITION TIME  TEMP    WIND        PRES    WAVE
                       AIR SEA DIR/SP/G            HT
                 (UTC) (F)     (DEG/KT/KT) (MB)    (FT)
BURNS HARBOR     0940   44     200/ 21/ 28 1006.1S
MICHIGAN CITY    0940   44     190/ 22/ 26   N/A

$$

INZ004-005-014>016-021>024-211100-
NORTH CENTRAL INDIANA

CITY           SKY/WX    TMP DP  RH WIND       PRES   REMARKS
GOSHEN         PTCLDY    40  26  57 SW17      29.73F WCI  31
LOGANSPORT +   CLEAR     37  30  75 SW16      29.79F WCI  28
PERU/GRISSOM   MOCLDY    40  27  60 SW20G25   29.78F WCI  30
ROCHESTER +    PTCLDY    43  30  61 SW12G21   29.76S
SOUTH BEND     CLOUDY    41  29  62 SW15G23   29.72S
WARSAW +       PTCLDY    41  28  60 SW10G17   29.75F

$$

INZ006>009-017-018-025>027-211100-
NORTHEAST INDIANA

CITY           SKY/WX    TMP DP  RH WIND       PRES   REMARKS
AUBURN +       CLOUDY    41  27  56 SW10G17   29.77F
FORT WAYNE     CLOUDY    40  27  59 SW16      29.79F WCI  31
HUNTINGTON +   PTCLDY    39  25  56 SW12G17   29.79F WCI  32
KENDALLVILLE + CLOUDY    39  27  61 SW15G25   29.74S WCI  31

$$

INZ028-029-035-036-043>045-051>053-211100-
WEST CENTRAL INDIANA

CITY           SKY/WX    TMP DP  RH WIND       PRES   REMARKS
CRAWFORDSVL +  CLOUDY    37  27  69 S13       29.82R WCI  28
GREENCASTLE +  PTCLDY    41  25  52 S7G16     29.87S
LAFAYETTE      PTCLDY    41  28  60 SW12G20   29.80F
TERRE HAUTE    PTCLDY    40  25  55 S13       29.87F WCI  32

$$

INZ030>032-037>040-046>048-054>057-064-065-211100-
CENTRAL INDIANA

CITY           SKY/WX    TMP DP  RH WIND       PRES   REMARKS
CP ATTERBURY + CLOUDY    41  25  52 S8        29.91F
FISHERS *+     CLOUDY    39  28  65 SW9       29.86  WCI  33
FRANKFORT +    PTCLDY    41  30  63 SW17G25   29.83S
GREENWOOD *+   CLOUDY    42  27  55 S9        29.88F
INDIANAPOLIS   CLOUDY    42  25  50 SW15      29.87F
-EAGLE CREEK   CLOUDY    43  24  47 SW12G20   29.85F
KOKOMO +       MOCLDY    41  27  57 SW17G23   29.80F
MARION +       PTCLDY    36  27  69 S16       29.82F WCI  27
MT COMFORT *+  CLOUDY    36  28  75 S10       29.87S WCI  28
SHELBYVILLE    PTCLDY    39  24  55 S13       29.89F WCI  31
ZIONSVILLE +   CLOUDY    40  25  56 SW18      29.84F WCI  30

$$

INZ033-034-041-042-049-050-058-059-211100-
EAST CENTRAL INDIANA

CITY           SKY/WX    TMP DP  RH WIND       PRES   REMARKS
MUNCIE         CLOUDY    42  23  46 SW17G24   29.83F
RICHMOND +     CLOUDY    36  27  69 SW16G22   29.90F WCI  26

$$

INZ060-061-067>069-081>083-085>088-211100-
SOUTHWEST INDIANA

CITY           SKY/WX    TMP DP  RH WIND       PRES   REMARKS
EVANSVILLE     CLOUDY    39  29  67 S8        29.97F WCI  33
HUNTINGBURG +  CLOUDY    40  28  62 S12       29.97F WCI  33
WASHINGTON +   PTCLDY    40  25  54 S15       29.92F WCI  32

$$

INZ062-063-066-070>080-084-089>092-211100-
SOUTH CENTRAL AND SOUTHEAST INDIANA

CITY           SKY/WX    TMP DP  RH WIND       PRES   REMARKS
BEDFORD +      PTCLDY    43  25  49 S13G20    29.93F
BLOOMINGTON    PTCLDY    43  24  47 SW14      29.90F
MADISON *+     CLEAR     36  25  64 S7        29.99F WCI  30
NORTH VERNON + CLEAR     37  25  60 S10       29.95F WCI  30
SEYMOUR +      CLOUDY    43  27  52 SW14      29.94F

$$





USA.gov is the U.S. government's official web portal to all federal, state and local government web resources and services.